Dallas Redbird, TX

6:30 PM CST on January 17, 2018 (GMT -0600)
Redbird

Weather History for KRBD - February, 2014

Change the Weather History Date:

Sunday, February 16, 2014

  Actual Average Record
Temperature  
Mean Temperature 60 °F -  
Max Temperature 75 °F 59 °F 84 °F (2006)
Min Temperature 44 °F 40 °F 14 °F (2007)
Degree Days  
Heating Degree Days 6    
Growing Degree Days 10 (Base 50)    
Moisture  
Dew Point 50 °F    
Average Humidity 73    
Maximum Humidity 94    
Minimum Humidity 50    
Precipitation  
Precipitation 0.00 in - - ()
Sea Level Pressure  
Sea Level Pressure 29.99 in    
Wind  
Wind Speed 7 mph (SSE)    
Max Wind Speed 21 mph    
Max Gust Speed 30 mph    
Visibility 8 miles    
Events      
Averages and records for this station are not official NWS values.
T = Trace of Precipitation, MM = Missing Value Source: NWS Daily Summary

Daily Weather History Graph

Daily Weather History Graph

Search for Another Location

Airport or City:

Trip Planner

Search our weather history database for the weather conditions in past years. The results will help you decide how hot, cold, wet, or windy it might be!

Date:

Astronomy

Feb. 16, 2014 Rise Set
Actual Time 7:09 AM CST 6:14 PM CST
Civil Twilight 6:44 AM CST 6:39 PM CST
Nautical Twilight 6:15 AM CST 7:08 PM CST
Astronomical Twilight 5:46 AM CST 7:36 PM CST
Moon 8:02 PM CST (2/16) 7:47 AM CST (2/16)
Length of Visible Light 11h 54m
Length of Day
11h 04m
Full, 97% of the Moon is Illuminated
Feb 16
Full
Feb 22
Last Quarter
Mar 1
New
Mar 8
First Quarter
Mar 16
Full

Hourly Weather History & Observations

Time (CST) Temp. Windchill Dew Point Humidity Pressure Visibility Wind Dir Wind Speed Gust Speed Precip Events Conditions
12:53 AM 48.0 °F - 35.1 °F 61% 30.03 in 10.0 mi SE 3.5 mph - N/A   Clear
1:53 AM 48.0 °F - 36.0 °F 63% 30.02 in 10.0 mi ESE 5.8 mph - N/A   Clear
2:53 AM 45.0 °F 42.6 °F 35.1 °F 68% 30.02 in 10.0 mi ESE 4.6 mph - N/A   Clear
3:53 AM 44.1 °F 40.1 °F 35.1 °F 71% 30.01 in 10.0 mi SE 6.9 mph - N/A   Partly Cloudy
4:06 AM 48.2 °F - 37.4 °F 66% 30.02 in 10.0 mi SSE 6.9 mph - N/A   Mostly Cloudy
4:53 AM 50.0 °F - 42.1 °F 74% 30.01 in 10.0 mi SSE 6.9 mph - N/A   Overcast
5:53 AM 51.1 °F - 45.0 °F 80% 30.02 in 10.0 mi SSE 4.6 mph - N/A   Overcast
6:53 AM 52.0 °F - 48.9 °F 89% 30.02 in 5.0 mi SE 5.8 mph - N/A   Overcast
7:07 AM 51.8 °F - 48.2 °F 88% 30.03 in 2.5 mi SSE 6.9 mph - N/A   Overcast
7:26 AM 51.8 °F - 50.0 °F 94% 30.04 in 1.2 mi SE 5.8 mph - N/A   Overcast
7:41 AM 51.8 °F - 50.0 °F 94% 30.04 in 0.8 mi SE 5.8 mph - N/A   Overcast
7:53 AM 52.0 °F - 50.0 °F 93% 30.04 in 0.8 mi SSE 5.8 mph - N/A   Mist
8:09 AM 51.8 °F - 50.0 °F 94% 30.04 in 1.0 mi SSE 8.1 mph - N/A   Overcast
8:35 AM 53.6 °F - 50.0 °F 88% 30.04 in 2.0 mi South 8.1 mph - N/A   Overcast
8:46 AM 53.6 °F - 50.0 °F 88% 30.04 in 4.0 mi SSE 8.1 mph - N/A   Overcast
8:53 AM 54.0 °F - 50.0 °F 86% 30.04 in 4.0 mi SSE 8.1 mph - N/A   Overcast
9:10 AM 55.4 °F - 51.8 °F 88% 30.04 in 6.0 mi South 8.1 mph - N/A   Overcast
9:50 AM 57.2 °F - 50.0 °F 77% 30.04 in 9.0 mi South 9.2 mph - N/A   Overcast
9:53 AM 59.0 °F - 50.0 °F 72% 30.04 in 10.0 mi South 9.2 mph - N/A   Overcast
10:53 AM 66.0 °F - 54.0 °F 65% 30.03 in 10.0 mi SSW 8.1 mph 16.1 mph N/A   Overcast
11:00 AM 66.2 °F - 55.4 °F 68% 30.04 in 10.0 mi South 8.1 mph - N/A   Mostly Cloudy
11:31 AM 66.2 °F - 53.6 °F 64% 30.04 in 10.0 mi South 12.7 mph 20.7 mph N/A   Scattered Clouds
11:53 AM 69.1 °F - 55.0 °F 61% 30.02 in 10.0 mi South 12.7 mph 20.7 mph N/A   Partly Cloudy
12:53 PM 71.1 °F - 55.9 °F 59% 29.99 in 10.0 mi Variable 6.9 mph 18.4 mph N/A   Scattered Clouds
1:53 PM 72.0 °F - 55.9 °F 57% 29.95 in 10.0 mi South 8.1 mph 18.4 mph N/A   Scattered Clouds
2:53 PM 75.0 °F - 55.0 °F 50% 29.92 in 10.0 mi South 15.0 mph 25.3 mph N/A   Mostly Cloudy
3:53 PM 75.0 °F - 55.9 °F 51% 29.90 in 10.0 mi South 20.7 mph 29.9 mph N/A   Mostly Cloudy
4:53 PM 73.0 °F - 55.9 °F 55% 29.90 in 10.0 mi South 13.8 mph 26.5 mph N/A   Scattered Clouds
5:53 PM 72.0 °F - 55.9 °F 57% 29.89 in 10.0 mi SSE 13.8 mph 20.7 mph N/A   Mostly Cloudy
6:53 PM 70.0 °F - 55.9 °F 61% 29.91 in 10.0 mi South 6.9 mph 18.4 mph N/A   Partly Cloudy
7:53 PM 66.9 °F - 55.9 °F 68% 29.92 in 10.0 mi South 6.9 mph - N/A   Clear
8:53 PM 66.0 °F - 55.9 °F 70% 29.90 in 10.0 mi South 8.1 mph 17.3 mph N/A   Clear
9:53 PM 64.0 °F - 55.9 °F 75% 29.88 in 9.0 mi South 8.1 mph - N/A   Clear
10:53 PM 64.0 °F - 57.0 °F 78% 29.87 in 8.0 mi South 9.2 mph 17.3 mph N/A   Partly Cloudy
11:53 PM 64.0 °F - 57.9 °F 80% 29.85 in 8.0 mi South 10.4 mph 18.4 mph N/A   Clear